sat.trackr.live / text

‹ back to catalog

STARLINK-32888

NORAD 62966 · 2025-029U

PAYLOAD ACTIVE UNKNOWN

§ Identity

Operator
Country
US
Launch date
2025-02-11
Launch site
AFWTR
Launch vehicle
Mass (kg)
RCS (m²)

Purposes: comms

External: N2YO · Heavens-Above · Gunter

§ Orbital elements

Epoch: 2026-05-24T15:31:02.739936Z

Period
94.11 min
Inclination
53.1601°
Eccentricity
0.0000407
Mean motion
15.30205540 rev/d
Perigee alt
474.9 km
Apogee alt
475.5 km
Semi-major
6,853.3 km
B*
8.2843e-4
RAAN
239.8888°
Arg perigee
118.8882°
Mean anomaly
241.2160°
Rev number
7,294

§ Raw data

STARLINK-328881 62966U 25029U   26144.64655949  .00024261  00000+0  82843-3 0  99942 62966  53.1601 239.8888 0000407 118.8882 241.2160 15.30205540 72943

JSON: /api/v1/satellites/62966 · /tle

For live sub-satellite position, see the globe view (requires WebGL).

§ Visibility from observer

Set your observer location to see the next 7 days of passes ≥ 10°. The values pass through the URL so the page stays shareable.

No JS? Fill the form by hand. The geolocation button needs JavaScript.